[[{"header":{"parameterUnit":"m.s-1","parameterCategory":1,"la1":30.2991,"la2":30.254,"lo1":-89.0895,"lo2":-89.0444,"dy":0.0017,"dx":0.0017,"nx":28,"ny":28,"refTime":"2024-04-20T03:00:00:Z","depth":0,"parameterNumber":2,"parameterNumberName":"U-component_of_WINDS"},"data":[0,0,0,0,0,0,0,0,0,0,0,0,0,0,0,0,0,0,0,0,0,0,0,0,0,0,0,0,0,0,0,0,0,0,0,0,0,0,0,0,0,0,0,0,0,0,0,0,0,0,0,0,0,0,0,0,0,0,-0.0098,-0.0097,0,-0.0014,-0.0013,-0.0012,0.0025,0.0025,0.0025,0.0025,0.0111,0.0113,0.0115,0,0,0,0,0,0,0,0,0,0,0,0,0,-0.0231,-0.0229,-0.0098,-0.0097,-0.0096,-0.0014,-0.0013,-0.0011,0.0025,0.0025,0.0025,0.0025,0.011,0.0113,0.0116,0,0,0,0,0,0,0,0,0,0,0,0,0,-0.0163,-0.0228,-0.0099,-0.0068,-0.0065,-0.0014,-0.0013,-0.0011,0.0025,0.0025,0.0025,0.0025,0.0109,0.0112,0.0116,0.0142,0,0,0.0127,0.0129,0,0,0,0,0,0,0,0,-0.0167,-0.0158,-0.0074,-0.007,-0.0066,-0.0005,-0.0028,0.004,0.0025,-0.0009,0.0025,0.0024,0.0072,0.0079,0.0095,0.0146,0.015,0.0127,0.013,0.0131,0.0132,0,0,0,0,0,0,0,-0.0172,-0.0161,-0.0065,-0.0072,-0.0068,-0.006,-0.005,-0.0015,0.0032,-0.0006,-0.0003,0.0006,0.0074,0.0092,0.0097,0.0151,0.0127,0.013,0.0133,0.0134,0.0226,0.0227,0,0,0,0,0,0,-0.0181,-0.0166,-0.0068,-0.0062,-0.0118,-0.0057,-0.0046,-0.0024,0.0031,0.004,0.0007,0.0008,0.0086,0.0093,0.0101,0.0135,0.0131,0.0134,0.0137,0.0226,0.0227,0.0227,0,0,0,0,0,0,-0.0184,-0.0173,-0.0071,-0.0113,-0.01,-0.0054,-0.003,-0.0023,-0.0005,0.0041,0.0049,0.0016,0.0086,0.0096,0.0131,0.0138,0.0136,0.0139,0.0226,0.0226,0.0227,0.0203,0,0,0,0,0,0,-0.0188,-0.0174,-0.0163,-0.0113,-0.0097,-0.0041,-0.003,-0.0021,0.0001,0.0004,0.0052,0.006,0.0086,0.0126,0.0135,0.0143,0.0142,0.0225,0.0226,0.0227,0.0203,0.0202,0.0201,0,0,0,0,0,-0.0193,-0.0173,-0.0162,-0.0151,-0.0082,-0.0041,-0.0032,-0.0001,0.0001,0.0013,0.0042,0.0058,0.0135,0.0129,0.014,0.0149,0.0225,0.0226,0.0227,0.0203,0.0202,0.0201,0,0,0,0,0,0,-0.0223,-0.0166,-0.0153,-0.0116,-0.0084,-0.0035,-0.0019,-0.0003,0.0029,0.003,0.0066,0.0077,0.0109,0.0133,0.0125,0.0176,0.0182,0.0184,0.016,0.016,0.0159,0.0153,0.0145,0,0,0,0,0,-0.0225,-0.0195,-0.0147,-0.0119,-0.0104,-0.0065,-0.0045,-0.0025,0.0011,0.0025,0.0057,0.009,0.0121,0.0142,0.0174,0.0206,0.0217,0.0217,0.0217,0.0216,0.0218,0.0236,0.0236,0.0229,0.0229,0.0229,0,0,-0.0229,-0.0195,-0.0178,-0.0125,-0.0097,-0.0067,-0.0053,-0.0022,-0.0,0.0029,0.0065,0.0089,0.0129,0.0162,0.0179,0.0183,0.0222,0.0216,0.0215,0.0218,0.0236,0.0237,0.0238,0.0229,0.0229,0.0229,0,0,-0.0222,-0.0193,-0.0167,-0.0139,-0.0097,-0.0072,-0.0066,-0.0019,-0.0002,0.0034,0.0057,0.0083,0.0137,0.0164,0.0184,0.0199,0.0215,0.0208,0.0204,0.0221,0.0222,0.0223,0.0227,0.0229,0.021,0.021,0.021,0,-0.0233,-0.0187,-0.0156,-0.0126,-0.0104,-0.0076,-0.005,-0.0025,0.0024,0.0039,0.0042,0.011,0.0138,0.0178,0.0181,0.0197,0.0205,0.0204,0.0219,0.022,0.0221,0.0226,0.0228,0.0209,0.0209,0.0209,0.0209,0,-0.0203,-0.0172,-0.0156,-0.0108,-0.0084,-0.0057,-0.0022,-0.0002,0.0015,0.004,0.0076,0.0111,0.0149,0.016,0.0178,0.0202,0.0203,0.0212,0.0218,0.022,0.0226,0.0228,0.0207,0.0208,0.0208,0.0208,0,0,-0.0211,-0.0147,-0.0142,-0.012,-0.0073,-0.0048,-0.0021,0.0017,0.0033,0.0066,0.009,0.0134,0.0142,0.0165,0.0186,0.0201,0.0209,0.0208,0.0209,0.0207,0.0237,0.023,0.0232,0.0219,0.022,0.022,0.0234,0,-0.0197,-0.0144,-0.0116,-0.0076,-0.0048,-0.0022,0.0002,0.0033,0.0056,0.0083,0.0108,0.0139,0.0148,0.0162,0.0177,0.0205,0.0216,0.0204,0.0241,0.0242,0.0232,0.0235,0.0229,0.024,0.0236,0.0237,0.0237,0,-0.0173,-0.0141,-0.0098,-0.0055,-0.0042,-0.0021,0.0015,0.0041,0.0076,0.0091,0.0116,0.0136,0.0165,0.0168,0.0208,0.0199,0.0216,0.0231,0.0232,0.0238,0.024,0.0241,0.0244,0.0246,0.0241,0.024,0.024,0,-0.0183,-0.0129,-0.0097,-0.0079,-0.0028,-0.0014,0.0007,0.0042,0.0063,0.0094,0.0107,0.0141,0.016,0.0185,0.0213,0.0212,0.025,0.0255,0.0263,0.0262,0.0271,0.027,0.0277,0.028,0.028,0.028,0.028,0,-0.0171,-0.0146,-0.0101,-0.0081,-0.0052,-0.0021,0.0006,0.0029,0.006,0.0084,0.0107,0.0129,0.0165,0.0191,0.0212,0.0242,0.025,0.0263,0.0269,0.0261,0.026,0.0273,0.0273,0.0281,0.0281,0.0281,0.0281,0,-0.0176,-0.0145,-0.0108,-0.0063,-0.0052,-0.0033,0.0005,0.0024,0.0048,0.0078,0.0087,0.0124,0.0155,0.0185,0.0228,0.0242,0.0271,0.0279,0.026,0.0263,0.0269,0.0268,0.0286,0.029,0.029,0.029,0.029,0,-0.017,-0.015,-0.0103,-0.0085,-0.0064,-0.0035,-0.0014,0.0017,0.0037,0.0077,0.0092,0.0125,0.0153,0.0202,0.0232,0.0264,0.0272,0.0276,0.0277,0.0269,0.0272,0.0271,0.0273,0.0276,0.0275,0.0275,0.0275,0,-0.0162,-0.0148,-0.0118,-0.0083,-0.0059,-0.0031,-0.0001,0.0012,0.0048,0.0069,0.0102,0.0124,0.0166,0.0199,0.0233,0.0255,0.0271,0.0274,0.0278,0.0271,0.0259,0.0266,0.0258,0.0274,0.0274,0.0274,0.0274,0.0274,-0.0161,-0.0143,-0.0107,-0.0075,-0.005,-0.0024,-0.0003,0.0023,0.0051,0.0088,0.0104,0.0136,0.0169,0.0218,0.0238,0.0263,0.0267,0.0272,0.0274,0.0275,0.0273,0.0254,0.027,0.027,0.027,0.027,0.027,0,-0.0152,-0.0128,-0.0099,-0.0059,-0.0034,-0.0022,0.0011,0.003,0.0059,0.0088,0.0115,0.0152,0.0182,0.0214,0.0246,0.026,0.0268,0.0268,0.0267,0.0272,0.0268,0.0262,0.0261,0.0261,0.0261,0.0261,0.0261,0.0261,-0.0144,-0.0112,-0.0094,-0.0051,-0.0027,0.0006,0.0023,0.0047,0.007,0.011,0.0136,0.0156,0.0186,0.022,0.0249,0.0257,0.0268,0.0265,0.0276,0.0272,0.0272,0.0273,0.0267,0.0267,0.0267,0.0278,0.0278,0.0278]},{"header":{"parameterUnit":"m.s-1","parameterCategory":1,"la1":30.2991,"la2":30.254,"lo1":-89.0895,"lo2":-89.0444,"dy":0.0017,"dx":0.0017,"nx":28,"ny":28,"refTime":"2024-04-20T03:00:00:Z","depth":0,"parameterNumber":3,"parameterNumberName":"V-component_of_WINDS"},"data":[0,0,0,0,0,0,0,0,0,0,0,0,0,0,0,0,0,0,0,0,0,0,0,0,0,0,0,0,0,0,0,0,0,0,0,0,0,0,0,0,0,0,0,0,0,0,0,0,0,0,0,0,0,0,0,0,0,0,3.9797,3.9796,0,3.9716,3.9716,3.9715,3.9691,3.9692,3.9692,3.9693,3.9606,3.9603,3.96,0,0,0,0,0,0,0,0,0,0,0,0,0,3.9928,3.9926,3.9797,3.9796,3.9795,3.9717,3.9716,3.9714,3.9691,3.9692,3.9692,3.9693,3.9607,3.9603,3.96,0,0,0,0,0,0,0,0,0,0,0,0,0,3.9861,3.9925,3.9798,3.9775,3.9772,3.9717,3.9715,3.9714,3.9691,3.9692,3.9693,3.9693,3.9608,3.9604,3.96,3.9561,0,0,3.9587,3.9585,0,0,0,0,0,0,0,0,3.9865,3.9857,3.9779,3.9776,3.9773,3.9715,3.973,3.9662,3.9691,3.9722,3.9693,3.9694,3.9641,3.9634,3.9617,3.9556,3.9553,3.9587,3.9584,3.9582,3.9581,0,0,0,0,0,0,0,3.987,3.986,3.9765,3.9778,3.9774,3.9767,3.9758,3.9717,3.9678,3.9719,3.9717,3.9708,3.964,3.9622,3.9615,3.9551,3.9587,3.9583,3.9581,3.9579,3.9455,3.9454,0,0,0,0,0,0,3.9879,3.9864,3.9768,3.9763,3.9822,3.9764,3.9754,3.9733,3.9679,3.9671,3.9708,3.9707,3.9628,3.962,3.9612,3.9563,3.9582,3.9579,3.9576,3.9456,3.9455,3.9454,0,0,0,0,0,0,3.9882,3.9871,3.9771,3.9813,3.98,3.9761,3.9737,3.9731,3.9713,3.967,3.9663,3.9697,3.9628,3.9618,3.9574,3.956,3.9577,3.9573,3.9457,3.9455,3.9454,3.9465,0,0,0,0,0,0,3.9886,3.9872,3.9857,3.9813,3.9798,3.9735,3.9736,3.9729,3.9706,3.9705,3.9658,3.9651,3.9628,3.958,3.957,3.9555,3.957,3.9458,3.9456,3.9455,3.9466,3.9465,3.9463,0,0,0,0,0,3.989,3.9863,3.9857,3.9845,3.9779,3.9735,3.9726,3.9702,3.9705,3.969,3.9663,3.9652,3.9563,3.9576,3.9564,3.9547,3.9458,3.9457,3.9455,3.9466,3.9465,3.9463,0,0,0,0,0,0,3.9905,3.9856,3.9849,3.9807,3.9775,3.9731,3.9711,3.97,3.9666,3.9666,3.9636,3.9626,3.9584,3.9561,3.9576,3.9507,3.951,3.9506,3.9524,3.9522,3.952,3.9526,3.9566,0,0,0,0,0,3.9903,3.9873,3.9831,3.9798,3.9782,3.975,3.9729,3.9714,3.9679,3.9665,3.9635,3.9601,3.9565,3.9542,3.9507,3.9463,3.9452,3.9445,3.9444,3.9443,3.944,3.9415,3.9412,3.9448,3.9448,3.9448,0,0,3.9899,3.9869,3.9851,3.98,3.9774,3.9741,3.9738,3.9704,3.968,3.9659,3.9617,3.9593,3.9553,3.9509,3.9488,3.9489,3.9427,3.9441,3.944,3.9437,3.9413,3.9409,3.9406,3.9446,3.9447,3.9447,0,0,3.9875,3.985,3.9819,3.9793,3.9755,3.9733,3.9726,3.9683,3.9667,3.9624,3.9609,3.9578,3.9518,3.949,3.9468,3.9435,3.9424,3.9424,3.9417,3.9393,3.9391,3.9388,3.9376,3.9372,3.9421,3.9421,3.9421,0,3.9875,3.9827,3.9804,3.9771,3.9749,3.9731,3.9699,3.9675,3.9626,3.961,3.9612,3.9536,3.9508,3.9457,3.945,3.9432,3.9422,3.9429,3.9393,3.939,3.9387,3.9376,3.9372,3.9421,3.9421,3.9421,3.9421,0,3.9828,3.9796,3.9775,3.9731,3.9706,3.9674,3.9645,3.9622,3.9609,3.9587,3.9543,3.9509,3.9467,3.9454,3.9439,3.9401,3.9403,3.9399,3.9402,3.9385,3.9373,3.9369,3.9422,3.9422,3.9421,3.9421,0,0,3.981,3.9755,3.9747,3.9727,3.9683,3.9657,3.9624,3.9584,3.9566,3.9532,3.9503,3.9453,3.945,3.9425,3.9408,3.9387,3.9363,3.9386,3.9384,3.9383,3.9319,3.9322,3.9318,3.9356,3.9355,3.9354,3.9323,0,3.9781,3.9723,3.9702,3.9653,3.9623,3.9606,3.9577,3.9546,3.9525,3.9495,3.9471,3.9436,3.9434,3.9419,3.9398,3.9371,3.935,3.9373,3.9328,3.9327,3.9339,3.9312,3.9315,3.9286,3.9318,3.9317,3.9317,0,3.9739,3.9708,3.9657,3.9618,3.9604,3.9579,3.9541,3.9513,3.9478,3.9464,3.9437,3.9421,3.9385,3.9391,3.934,3.9356,3.9336,3.9321,3.9319,3.9314,3.9321,3.9306,3.9277,3.9272,3.931,3.931,3.9311,0,3.9731,3.9676,3.9639,3.9622,3.9575,3.9558,3.9537,3.9503,3.9481,3.9448,3.9433,3.9395,3.9375,3.9346,3.932,3.9327,3.9272,3.9275,3.9259,3.9259,3.9248,3.9249,3.9215,3.9235,3.9235,3.9235,3.9236,0,3.9701,3.967,3.9635,3.9612,3.9577,3.9553,3.9518,3.9497,3.9467,3.9438,3.9421,3.9394,3.9362,3.9331,3.9311,3.9273,3.9263,3.925,3.9245,3.9252,3.9254,3.9238,3.924,3.9234,3.9235,3.9235,3.9235,0,3.9686,3.9661,3.962,3.958,3.9569,3.9545,3.951,3.9487,3.9465,3.943,3.942,3.9386,3.9349,3.9321,3.9272,3.9258,3.9217,3.9212,3.923,3.9227,3.9212,3.9214,3.9168,3.916,3.9186,3.9186,3.9185,0,3.9668,3.9645,3.9603,3.9584,3.9564,3.9533,3.9511,3.9485,3.9463,3.9422,3.9403,3.9365,3.9334,3.9275,3.9246,3.9209,3.9202,3.9188,3.9196,3.9204,3.9202,3.9204,3.9201,3.9187,3.9187,3.9187,3.9187,0,3.9639,3.9628,3.9598,3.9564,3.9538,3.951,3.948,3.9465,3.9434,3.941,3.9373,3.9349,3.93,3.9263,3.9223,3.92,3.9188,3.9185,3.9179,3.9185,3.9197,3.9191,3.9227,3.9186,3.9186,3.9186,3.9186,3.9186,3.9622,3.9601,3.9569,3.9536,3.9511,3.9485,3.9461,3.9438,3.9407,3.9366,3.9353,3.9315,3.928,3.9226,3.9204,3.9173,3.9172,3.9164,3.9162,3.916,3.9161,3.9202,3.9165,3.9165,3.9165,3.9165,3.9165,0,3.9592,3.9571,3.9541,3.9502,3.9476,3.9469,3.9436,3.9414,3.9381,3.9351,3.9321,3.9279,3.9243,3.9211,3.9173,3.9154,3.9148,3.9145,3.9146,3.9141,3.9163,3.9172,3.9151,3.9151,3.9151,3.9151,3.9151,3.9151,3.9574,3.9538,3.9523,3.9475,3.9453,3.9417,3.9399,3.9374,3.935,3.9304,3.9275,3.9255,3.9224,3.9184,3.915,3.9142,3.9129,3.9127,3.9117,3.9138,3.914,3.9141,3.915,3.9125,3.9125,3.9098,3.9098,3.9098]}]]